Regional Weather Roundup
Issued by NWS

Home | Current Version | Previous Version | Graphics & Text | Print | Product List | Glossary On
Versions: 1 2 3 4 5 6 7 8 9 10 11 12 13 14 15 16 17 18 19 20 21 22 23 24 25 26 27 28 29 30 31 32 33 34 35 36 37 38 39 40 41 42 43 44 45 46 47 48 49 50
000
ASUS43 KMPX 181410
RWRMN
WEATHER ROUNDUP FOR MINNESOTA
NATIONAL WEATHER SERVICE TWIN CITIES/CHANHASSEN MN
900 AM CDT FRI APR 18 2014


NOTE: "FAIR" INDICATES FEW OR NO CLOUDS BELOW 12,000 FEET WITH NO
SIGNIFICANT WEATHER AND/OR OBSTRUCTIONS TO VISIBILITY. N/A MEANS
CURRENT SKY AND/OR WEATHER CONDITIONS ARE NOT AVAILABLE.

MNZ060>063-068>070-181500-
   Twin Cities Metro

CITY           SKY/WX    TMP DP  RH WIND       PRES   REMARKS
TWIN CITIES    CLOUDY    33  30  88 E6        30.37S WCI  28
ST PAUL        CLOUDY    33  30  88 CALM      30.39S
CRYSTAL        CLOUDY    33  28  81 E3        30.36S HAZE
BLAINE         CLOUDY    28  30 100 SE5       30.37R WCI  23
EDEN PRAIRIE   CLOUDY    35  30  82 NE5       30.36R HAZE    WCI  31
LAKEVILLE      PTSUNNY   30  30 100 E5        30.36S FOG     WCI  25
SOUTH ST PAUL  CLOUDY    36  32  87 CALM      30.38R FOG
LAKE ELMO      CLOUDY    32  32 100 CALM      30.39S
$$
MNZ001>005-007-008-013>017-022>024-027-028-181500-
   Northwest Minnesota

CITY           SKY/WX    TMP DP  RH WIND       PRES   REMARKS
BEMIDJI        SUNNY     33  23  65 SE8       30.31S WCI  27
HALLOCK        CLOUDY    36  16  44 SE9       30.29S
ROSEAU         SUNNY     34  18  51 E7        30.32F WCI  28
WARROAD        SUNNY     27  18  69 E6        30.34S WCI  20
THIEF RVR FALL SUNNY     34  19  55 SE9       30.30F WCI  26
CROOKSTON      CLOUDY    36  21  55 E8        30.28F
FOSSTON        PTSUNNY   36  23  60 E8        30.29F
DETROIT LAKES  MOSUNNY   34  23  64 SE8       30.29S WCI  27
MOORHEAD       MOSUNNY   37  25  60 SE10      30.27F
PARK RAPIDS    CLOUDY    31  22  69 SE8       30.30S WCI  23
$$
MNZ006-009>011-018-025>026-181500-
   North Central Minnesota

CITY           SKY/WX    TMP DP  RH WIND       PRES   REMARKS
BAUDETTE       SUNNY     28  19  69 E5        30.35S WCI  23
FLAG ISLAND    SUNNY     19  12  73 S3        30.35R
INTL FALLS     SUNNY     30  23  75 SE3       30.37R
WASKISH        SUNNY     34  25  69 E7        30.33F WCI  28
BIG FORK       SUNNY     34  23  64 SE3       30.36S
LONGVILLE      PTSUNNY   36  21  55 SE9       30.33S
GRAND RAPIDS   SUNNY     34  21  60 E6        30.35S WCI  29
CRANE LAKE     SUNNY     27  25  93 CALM      30.41S
ORR            SUNNY     28  21  74 CALM      30.35S
COOK           SUNNY     28  21  74 CALM      30.38S
$$
MNZ012-019>021-037-181500-
   Northeast Minnesota

CITY           SKY/WX    TMP DP  RH WIND       PRES   REMARKS
DULUTH         MOSUNNY   33  20  58 NE5       30.36R WCI  29
ELY            MOSUNNY   21  21 100 CALM      30.39R
HIBBING        SUNNY     34  22  61 E5        30.36R WCI  30
EVELETH        SUNNY     32  25  74 NE6       30.38R WCI  26
DULUTH HARBOR  MOSUNNY   28  25  86 CALM      30.42R
TWO HARBORS    SUNNY     34  18  51 NE3       30.36S
SILVER BAY     SUNNY     34  25  69 N6        30.37R WCI  29
GRAND MARAIS     N/A     34  23  64 NE3       30.39R
G MARAIS ARPRT PTSUNNY   27  18  69 N14G23    30.34R WCI  15
$$
MNZ029>031-032-039>041-046>048-054>057-064-181500-
   West Central Minnesota

CITY           SKY/WX    TMP DP  RH WIND       PRES   REMARKS
FERGUS FALLS   PTSUNNY   37  21  52 SE9       30.25F
WHEATON        PTSUNNY   37  28  70 SE15      30.29S
MORRIS         PTSUNNY   36  25  64 SE15      30.27F
ALEXANDRIA     CLOUDY    34  22  61 SE9       30.30S WCI  27
ELBOW LAKE     CLOUDY    34  25  69 SE7       30.28F WCI  28
WADENA         CLOUDY    30  21  69 E5        30.30S WCI  25
GLENWOOD       PTSUNNY   34  27  75 E8        30.30F WCI  27
APPLETON       MOSUNNY   36  27  69 E13       30.28F
BENSON         MOSUNNY   36  27  69 SE10      30.30S
ORTONVILLE     CLOUDY    34  27  75 E12       30.26S WCI  25
MADISON        PTSUNNY   37  30  75 SE14      30.28R
WILLMAR        FAIR      36  25  64 SE12      30.33R
$$
MNZ033>034-036-042>043-049>051-058-059-181500-
   Central Minnesota

CITY           SKY/WX    TMP DP  RH WIND       PRES   REMARKS
ST CLOUD       PTSUNNY   32  24  72 E3        30.35S
SAUK CENTRE    CLOUDY    32  25  74 E5        30.32F WCI  27
PAYNESVILLE    CLOUDY    33  24  69 SE7       30.33S WCI  27
AITKIN         PTSUNNY   37  25  60 E6        30.34R
PINE RIVER     PTSUNNY   34  25  69 E9        30.36R WCI  26
BRAINERD       CLOUDY    36  23  59 E6        30.34R
STAPLES        CLOUDY    30  21  69 E3        30.32S
LONG PRAIRIE   FAIR      32  23  69 CALM      30.32S
LITTLE FALLS   MOSUNNY   32  23  69 S3        30.33F
LITCHFIELD     PTSUNNY   32  28  86 SE6       30.34S WCI  26
BUFFALO        CLOUDY    32  26  78 E8        30.36F WCI  25
MAPLE LAKE     CLOUDY    32  29  88 CALM      30.35F
$$
MNZ037-044-045-052-053-181500-
   East Central Minnesota

CITY           SKY/WX    TMP DP  RH WIND       PRES   REMARKS
PRINCETON      PTSUNNY   32  25  74 CALM      30.37R
MORA           CLOUDY    30  27  86 E3        30.39R
CAMBRIDGE      CLOUDY    32  23  69 CALM      30.35S
RUSH CITY      CLOUDY    28  25  89 CALM      30.38S
MOOSE LAKE     MOSUNNY   32  21  64 NE3       30.37R
HINCKLEY       FAIR      32  27  80 E5        30.39R WCI  27
CLOQUET        SUNNY     32  21  64 CALM      30.37R
MCGREGOR       MOSUNNY   36  23  60 E8        30.37R
$$
MNZ071>073-080-081-089-090-097-098-181500-
   Southwest Minnesota

CITY           SKY/WX    TMP DP  RH WIND       PRES   REMARKS
MONTEVIDEO     MOSUNNY   34  28  80 SE13      30.30F WCI  25
GRANITE FALLS  CLOUDY    32  27  81 E9        30.31F WCI  25
CANBY          CLOUDY    33  31  90 SE10      30.27S WCI  25
MARSHALL       PTSUNNY   36  28  75 SE13      30.27S
REDWOOD FALLS  MOSUNNY   35  29  78 SE8       30.31R WCI  29
OLIVIA         CLOUDY    32  27  80 E12       30.31S WCI  23
PIPESTONE      CLOUDY    36  30  80 SE13G21   30.22S
WINDOM         MOSUNNY   37  32  81 SE12      30.29S
WORTHINGTON    PTSUNNY   36  27  69 SE16      30.28F
JACKSON        MOSUNNY   36  32  87 SE13      30.30S HAZE
TRACY          PTSUNNY   37  32  84 SE10      30.28R
SLAYTON        CLOUDY    33  32  96 SE9       30.27R FOG     WCI  25
$$
MNZ065>067-074>077-082>085-091>093-181500-
   South Central Minnesota

CITY           SKY/WX    TMP DP  RH WIND       PRES   REMARKS
MANKATO        PTSUNNY   36  30  80 SE8       30.35S
NEW ULM        PTSUNNY   36  32  87 SE8       30.33S
ST JAMES       MOSUNNY   37  34  87 SE8       30.33S
FAIRMONT       MOSUNNY   36  28  75 SE17      30.34S
GLENCOE        CLOUDY    35  28  78 E6        30.35R WCI  30
FARIBAULT      PTSUNNY   37  30  75 E6        30.35S
OWATONNA       PTSUNNY   36  30  80 SE6       30.35R
WASECA         PTSUNNY   37  36  93 SE7       30.37R
ALBERT LEA     MOSUNNY   37  32  81 SE9       30.35R
$$
MNZ078>079-086>088-094>096-181500-
   Southeast Minnesota

CITY           SKY/WX    TMP DP  RH WIND       PRES   REMARKS
ROCHESTER      CLOUDY    34  29  82 E7        30.36S HAZE    WCI  28
RED WING       PTSUNNY   34  32  93 CALM      30.39R FOG
STANTON        PTSUNNY   33  31  92 CALM      30.35S FOG
DODGE CENTER   MOSUNNY   36  34  93 E7        30.35S FOG
WINONA         LGT SNOW  34  32  93 CALM      30.41R
AUSTIN         MOSUNNY   36  30  80 SE5       30.35R
PRESTON        CLOUDY    34  30  85 NE5       30.36S WCI  30
$$
ABBREVIATIONS USED IN REMARKS
   TC - TEMPERATURES IN CELSIUS
  WCI - WIND CHILL INDEX
   HX - HEAT INDEX
  VSB - VISIBILITY
$$



USA.gov is the U.S. government's official web portal to all federal, state and local government web resources and services.